Hourly Weather Kistutovo

Today, 30 July, Friday

Time Temperature Precipitation Wind Pressure Humidity
00:00 +17°C° 0 mm 2 mps 740 mmHg 91%
01:00 +17°C° 0 mm 2 mps 740 mmHg 93%
02:00 +16°C° 0 mm 2 mps 740 mmHg 96%
03:00 +17°C° 0 mm 2 mps 740 mmHg 95%
04:00 +18°C° 0 mm 1 mps 740 mmHg 93%
05:00 +18°C° 0 mm 1 mps 740 mmHg 92%
06:00 +20°C° 0 mm 1 mps 740 mmHg 83%
07:00 +21°C° 0 mm 2 mps 740 mmHg 74%
08:00 +24°C° 0 mm 2 mps 740 mmHg 65%
09:00 +24°C° 0.5 mm 2 mps 740 mmHg 68%
10:00 +24°C° 0.5 mm 2 mps 740 mmHg 71%
11:00 +25°C° 0.5 mm 2 mps 740 mmHg 74%
12:00 +24°C° 0.8 mm 2 mps 740 mmHg 78%
13:00 +23°C° 0.8 mm 2 mps 739 mmHg 83%
14:00 +21°C° 0.8 mm 2 mps 739 mmHg 88%
15:00 +21°C° 0.3 mm 2 mps 739 mmHg 87%
16:00 +21°C° 0.3 mm 2 mps 739 mmHg 86%
17:00 +21°C° 0.3 mm 2 mps 739 mmHg 86%
18:00 +20°C° 0.6 mm 2 mps 739 mmHg 88%
19:00 +19°C° 0.6 mm 2 mps 739 mmHg 91%
20:00 +18°C° 0.6 mm 2 mps 738 mmHg 93%
21:00 +17°C° 0.1 mm 2 mps 738 mmHg 93%
22:00 +18°C° 0.1 mm 1 mps 738 mmHg 93%
23:00 +16°C° 0.1 mm 1 mps 738 mmHg 93%

Tomorrow, 31 July, Saturday

Time Temperature Precipitation Wind Pressure Humidity
00:00 +16°C° 0.1 mm 2 mps 738 mmHg 94%
01:00 +15°C° 0.1 mm 2 mps 738 mmHg 95%
02:00 +15°C° 0.1 mm 2 mps 738 mmHg 95%
03:00 +15°C° 0 mm 2 mps 738 mmHg 94%
04:00 +13°C° 0 mm 3 mps 737 mmHg 93%
05:00 +13°C° 0 mm 3 mps 737 mmHg 92%
06:00 +16°C° 0 mm 3 mps 737 mmHg 84%
07:00 +17°C° 0 mm 4 mps 737 mmHg 76%
08:00 +17°C° 0 mm 5 mps 737 mmHg 68%
09:00 +17°C° 0.1 mm 5 mps 738 mmHg 71%
10:00 +16°C° 0.1 mm 5 mps 738 mmHg 75%
11:00 +16°C° 0.1 mm 5 mps 738 mmHg 78%
12:00 +19°C° 0 mm 5 mps 738 mmHg 65%
13:00 +22°C° 0 mm 5 mps 738 mmHg 53%
14:00 +24°C° 0 mm 6 mps 738 mmHg 40%
15:00 +25°C° 0 mm 5 mps 738 mmHg 44%
16:00 +25°C° 0 mm 5 mps 739 mmHg 48%
17:00 +23°C° 0 mm 4 mps 739 mmHg 52%
18:00 +22°C° 0 mm 4 mps 739 mmHg 60%
19:00 +20°C° 0 mm 4 mps 740 mmHg 68%
20:00 +19°C° 0 mm 3 mps 740 mmHg 76%
21:00 +18°C° 0 mm 3 mps 740 mmHg 82%
22:00 +17°C° 0 mm 3 mps 741 mmHg 89%
23:00 +16°C° 0 mm 2 mps 741 mmHg 96%

Day after tomorrow, 1 August, Sunday

Time Temperature Precipitation Wind Pressure Humidity
00:00 +16°C° 0 mm 2 mps 741 mmHg 96%
01:00 +16°C° 0 mm 2 mps 741 mmHg 97%
02:00 +15°C° 0 mm 2 mps 742 mmHg 97%
03:00 +16°C° 0 mm 2 mps 742 mmHg 96%
04:00 +16°C° 0 mm 2 mps 742 mmHg 95%
05:00 +16°C° 0 mm 2 mps 742 mmHg 93%
06:00 +18°C° 0 mm 2 mps 742 mmHg 85%
07:00 +19°C° 0 mm 3 mps 742 mmHg 77%
08:00 +21°C° 0 mm 3 mps 742 mmHg 69%
09:00 +20°C° 0.3 mm 3 mps 742 mmHg 76%
10:00 +19°C° 0.3 mm 3 mps 742 mmHg 83%
11:00 +18°C° 0.3 mm 3 mps 742 mmHg 90%
12:00 +18°C° 0.2 mm 3 mps 742 mmHg 90%
13:00 +18°C° 0.2 mm 3 mps 742 mmHg 91%
14:00 +18°C° 0.2 mm 2 mps 742 mmHg 92%
15:00 +18°C° 0 mm 3 mps 742 mmHg 89%
16:00 +19°C° 0 mm 3 mps 741 mmHg 87%
17:00 +20°C° 0 mm 3 mps 741 mmHg 84%
18:00 +19°C° 0 mm 2 mps 741 mmHg 88%
19:00 +18°C° 0 mm 2 mps 741 mmHg 92%
20:00 +18°C° 0 mm 1 mps 741 mmHg 96%
21:00 +18°C° 0 mm 1 mps 741 mmHg 96%
22:00 +18°C° 0 mm 1 mps 741 mmHg 96%
23:00 +18°C° 0 mm 1 mps 741 mmHg 96%

2 August, Monday

Time Temperature Precipitation Wind Pressure Humidity
00:00 +18°C° 0 mm 1 mps 741 mmHg 96%
01:00 +18°C° 0 mm 1 mps 742 mmHg 96%
02:00 +18°C° 0 mm 1 mps 742 mmHg 95%
03:00 +18°C° 0 mm 1 mps 742 mmHg 95%
04:00 +18°C° 0 mm 1 mps 741 mmHg 94%
05:00 +18°C° 0 mm 1 mps 741 mmHg 93%
06:00 +20°C° 0.1 mm 1 mps 741 mmHg 85%
07:00 +22°C° 0.1 mm 1 mps 742 mmHg 76%
08:00 +23°C° 0.1 mm 2 mps 742 mmHg 68%
09:00 +25°C° 0 mm 2 mps 741 mmHg 60%
10:00 +26°C° 0 mm 2 mps 741 mmHg 52%
11:00 +27°C° 0 mm 2 mps 741 mmHg 45%
12:00 +27°C° 0 mm 2 mps 741 mmHg 45%
13:00 +27°C° 0 mm 2 mps 741 mmHg 45%
14:00 +27°C° 0 mm 2 mps 740 mmHg 46%
15:00 +25°C° 0.3 mm 2 mps 740 mmHg 60%
16:00 +22°C° 0.3 mm 1 mps 740 mmHg 75%
17:00 +17°C° 0.3 mm 0 mps 740 mmHg 90%
18:00 +19°C° 0.3 mm 1 mps 739 mmHg 92%
19:00 +19°C° 0.3 mm 1 mps 739 mmHg 93%
20:00 +18°C° 0.3 mm 1 mps 738 mmHg 94%
21:00 +17°C° 1.3 mm 2 mps 738 mmHg 96%
22:00 +18°C° 1.3 mm 2 mps 738 mmHg 97%
23:00 +18°C° 1.3 mm 2 mps 738 mmHg 98%

3 August, Tuesday

Time Temperature Precipitation Wind Pressure Humidity
00:00 +17°C° 0.1 mm 3 mps 738 mmHg 98%
01:00 +17°C° 0.1 mm 3 mps 738 mmHg 97%
02:00 +17°C° 0.1 mm 3 mps 738 mmHg 96%
03:00 +16°C° 0 mm 3 mps 738 mmHg 96%
04:00 +16°C° 0 mm 3 mps 739 mmHg 95%
05:00 +16°C° 0 mm 3 mps 739 mmHg 95%
06:00 +17°C° 0 mm 3 mps 740 mmHg 87%
07:00 +18°C° 0 mm 4 mps 740 mmHg 79%
08:00 +19°C° 0 mm 4 mps 741 mmHg 70%
09:00 +20°C° 0 mm 4 mps 741 mmHg 66%
10:00 +21°C° 0 mm 4 mps 741 mmHg 61%
11:00 +22°C° 0 mm 4 mps 742 mmHg 57%
12:00 +23°C° 0.1 mm 4 mps 742 mmHg 52%
13:00 +25°C° 0.1 mm 4 mps 742 mmHg 46%
14:00 +25°C° 0.1 mm 4 mps 742 mmHg 41%
15:00 +23°C° 0 mm 4 mps 743 mmHg 44%
16:00 +22°C° 0 mm 4 mps 743 mmHg 48%
17:00 +22°C° 0 mm 4 mps 743 mmHg 51%
18:00 +20°C° 0 mm 3 mps 744 mmHg 60%
19:00 +18°C° 0 mm 2 mps 744 mmHg 68%
20:00 +16°C° 0 mm 2 mps 745 mmHg 77%
21:00 +15°C° 0 mm 2 mps 745 mmHg 80%
22:00 +14°C° 0 mm 2 mps 746 mmHg 83%
23:00 +13°C° 0 mm 2 mps 746 mmHg 86%

4 August, Wednesday

Time Temperature Precipitation Wind Pressure Humidity
00:00 +13°C° 0 mm 2 mps 746 mmHg 89%
01:00 +12°C° 0 mm 2 mps 747 mmHg 92%
02:00 +11°C° 0 mm 1 mps 748 mmHg 96%
03:00 +12°C° 0 mm 1 mps 748 mmHg 93%
04:00 +12°C° 0 mm 1 mps 749 mmHg 90%
05:00 +12°C° 0 mm 1 mps 749 mmHg 88%
06:00 +14°C° 0 mm 2 mps 749 mmHg 75%
07:00 +15°C° 0 mm 2 mps 750 mmHg 63%
08:00 +17°C° 0 mm 2 mps 750 mmHg 50%
09:00 +18°C° 0 mm 2 mps 750 mmHg 45%
10:00 +19°C° 0 mm 2 mps 751 mmHg 39%
11:00 +22°C° 0 mm 1 mps 751 mmHg 34%
12:00 +22°C° 0 mm 1 mps 751 mmHg 34%
13:00 +23°C° 0 mm 1 mps 751 mmHg 33%
14:00 +23°C° 0 mm 1 mps 751 mmHg 33%
15:00 +23°C° 0 mm 1 mps 751 mmHg 34%
16:00 +23°C° 0 mm 1 mps 751 mmHg 36%
17:00 +23°C° 0 mm 1 mps 751 mmHg 38%
18:00 +20°C° 0 mm 1 mps 751 mmHg 44%
19:00 +18°C° 0 mm 1 mps 752 mmHg 51%
20:00 +15°C° 0 mm 1 mps 752 mmHg 57%
21:00 +14°C° 0 mm 1 mps 752 mmHg 59%
22:00 +13°C° 0 mm 1 mps 752 mmHg 60%
23:00 +12°C° 0 mm 1 mps 753 mmHg 62%
Show more